Location: Lake Arresoe
(56.0000°N, 12.5000°E)
Time: 22:53:57
(UTC+02:00)

Cosmos 2058 - Visible Passes

Search period start: 13 October 2019 00:00
Search period end: 23 October 2019 00:00
Orbit: 563 x 583 km, 82.5° (Epoch: 13 October)

Date Brightness Start Highest point End Pass type
(mag) Time Alt. Az. Time Alt. Az. Time Alt. Az.
13 Oct 4.9 19:05:36 10° NNE 19:07:12 12° NE 19:08:47 10° ENE visible
13 Oct 2.9 20:40:50 10° N 20:44:59 62° ENE 20:44:59 62° ENE visible
13 Oct 5.4 22:18:31 10° NW 22:21:12 19° WNW 22:21:12 19° WNW visible
14 Oct 4.8 19:08:05 10° NNE 19:10:22 14° NE 19:11:59 12° E visible
14 Oct 2.8 20:43:48 10° N 20:48:03 78° ENE 20:48:12 76° ESE visible
14 Oct 5.6 22:21:49 10° NW 22:24:25 16° W 22:24:25 16° W visible
15 Oct 4.6 19:10:45 10° NNE 19:13:30 17° ENE 19:15:14 13° E visible
15 Oct 2.9 20:46:48 10° NNW 20:51:03 85° WSW 20:51:28 72° S visible
15 Oct 5.8 22:25:18 10° NW 22:27:16 13° W 22:27:41 13° W visible
16 Oct 4.4 19:13:30 10° NNE 19:16:37 20° ENE 19:18:33 15° E visible
16 Oct 3.1 20:49:48 10° NNW 20:54:01 69° W 20:54:47 55° SSW visible
16 Oct 6.0 22:29:13 10° WNW 22:30:06 11° WNW 22:30:59 10° W visible
17 Oct 4.1 19:16:18 10° N 19:19:44 23° ENE 19:21:55 16° ESE visible
17 Oct 3.6 20:52:50 10° NNW 20:56:59 55° W 20:58:09 40° SSW visible
18 Oct 3.9 19:19:09 10° N 19:22:49 28° ENE 19:25:24 16° ESE visible
18 Oct 4.0 20:55:53 10° NNW 20:59:55 44° W 21:01:38 28° SSW visible
19 Oct 3.6 19:22:01 10° N 19:25:54 33° ENE 19:28:58 14° SE visible
19 Oct 4.4 20:58:58 10° NNW 21:02:51 35° W 21:05:13 20° SW visible
20 Oct 3.4 19:24:55 10° N 19:28:57 41° ENE 19:32:43 11° SE visible
20 Oct 4.8 21:02:05 10° NNW 21:05:45 29° W 21:08:59 12° SW visible
21 Oct 3.1 19:27:51 10° N 19:31:59 50° ENE 19:36:05 10° SSE visible
21 Oct 5.2 21:05:15 10° NW 21:08:39 24° W 21:12:01 10° SW visible
22 Oct 2.9 19:30:47 10° N 19:35:00 62° ENE 19:39:11 10° SSE visible
22 Oct 5.5 21:08:28 10° NW 21:11:31 20° W 21:14:33 10° SW visible
